Find Starlink 11084

NORAD ID: 59717 Int'l Des: 2024-088 Owner: SPXS Country: US Constellation: starlink operational
LEOCIRCULAR

实时位置

正在加载3D地球...

关于 Starlink 11084

正在加载描述...

即将过境

Passes for default location (London). Set your location on the main map for personalized predictions.

高度历史

Loading altitude history...

两行轨道根数

1 59717U 24088K 26125.47897223 .00002399 00000-0 24640-4 0 9992
2 59717 53.1591 46.1707 0001101 83.0792 277.0352 15.69725774115198
Epoch: May 5, 2026 • Age: 13 hours

当前状态

高度 364.9 km
速度 7.70 km/s
星下点 50.48°N, 116.2°W
发射日期 May 10, 2024
运行时间 1.9 years
类型 internet

技术详情

分类 Payload
质量 960.00 kg
干质量 910.00 kg
总质量 960.00 kg
长度 0.30 m
直径 4.10 m
跨度 29.00 m
形状 Box + pan
制造商 SPXS
平台类型 Starlink V2MD
阶段状态 In Orbit
所有者/国家 SPXS/US

Most Searched